カタログに戻る

COSMOS 1561

運用中ナビゲーションLEO
NORAD 15000·PAYLOAD·🇷🇺 Russia

打ち上げ May 28, 1984 から Plesetsk Cosmodrome

Loading…

次のパス (今後24時間)

TLE

最新Source: Space-Track

元期: Sep 14, 2026, 19:03 UTC

1 15000U 84052C   26257.79386083 -.00000020  00000-0 -31466-4 0  9999
2 15000  74.0090 272.1788 0014345 120.4949  54.1402 12.47992534926918

AllMySatでCOSMOS 1561をリアルタイム追跡

Download on the App Store